Weather History for Cody, WY

Change the Weather History Date:

Wednesday, November 14, 2012

  Actual Average Record
Temperature  
Mean Temperature 36 °F -  
Max Temperature 46 °F 45 °F 72 °F (1933)
Min Temperature 26 °F 24 °F -18 °F (1955)
Degree Days  
Heating Degree Days 29    
Moisture  
Dew Point 24 °F    
Average Humidity 62    
Maximum Humidity 93    
Minimum Humidity 46    
Precipitation  
Precipitation 0.00 in - - ()
Sea Level Pressure  
Sea Level Pressure 30.11 in    
Wind  
Wind Speed 9 mph (SW)    
Max Wind Speed 20 mph    
Max Gust Speed 26 mph    
Visibility 10 miles    
Events      
Averages and records for this station are not official NWS values.
T = Trace of Precipitation, MM = Missing Value Source: NWS Daily Summary

Daily Weather History Graph

Daily Weather History Graph

Search for Another Location

Airport:

Trip Planner

Search our weather history database for the weather conditions in past years. The results will help you decide how hot, cold, wet, or windy it might be!

Date:

Astronomy

Nov. 14, 2012 Rise Set
Actual Time 7:11 AM MST 4:48 PM MST
Civil Twilight 6:40 AM MST 5:20 PM MST
Nautical Twilight 6:05 AM MST 5:55 PM MST
Astronomical Twilight 5:30 AM MST 6:29 PM MST
Moon 8:07 AM MST (11/14) 5:38 PM MST (11/14)
Length of Visible Light 10h 39m
Length of Day
9h 37m
New Moon, 1% of the Moon is Illuminated
Nov 14
New Moon
Nov 20
First Quarter
Nov 28
Full
Dec 6
Last Quarter
Dec 13
New

Hourly Weather History & Observations

Time (MST) Temp. Windchill Dew Point Humidity Pressure Visibility Wind Dir Wind Speed Gust Speed Precip Events Conditions
12:15 AM 30.2 °F 21.9 °F 19.4 °F 64% 30.12 in 10.0 mi SSE 9.2 mph - N/A   Clear
12:35 AM 30.2 °F 21.9 °F 19.4 °F 64% 30.12 in 10.0 mi SSE 9.2 mph - N/A   Clear
12:55 AM 28.4 °F 21.2 °F 19.4 °F 69% 30.11 in 10.0 mi SSE 6.9 mph - N/A   Clear
1:15 AM 28.4 °F 23.3 °F 19.4 °F 69% 30.11 in 10.0 mi South 4.6 mph - N/A   Clear
1:35 AM 28.4 °F 20.4 °F 19.4 °F 69% 30.11 in 10.0 mi SE 8.1 mph - N/A   Scattered Clouds
1:55 AM 28.4 °F 22.2 °F 19.4 °F 69% 30.11 in 10.0 mi South 5.8 mph - N/A   Mostly Cloudy
2:15 AM 30.2 °F 21.3 °F 19.4 °F 64% 30.11 in 10.0 mi South 10.4 mph - N/A   Mostly Cloudy
2:35 AM 30.2 °F 22.6 °F 21.2 °F 69% 30.11 in 10.0 mi SW 8.1 mph - N/A   Scattered Clouds
2:55 AM 30.2 °F 24.3 °F 19.4 °F 64% 30.10 in 10.0 mi SSW 5.8 mph - N/A   Mostly Cloudy
3:15 AM 28.4 °F 24.6 °F 17.6 °F 64% 30.10 in 10.0 mi North 3.5 mph - N/A   Scattered Clouds
3:35 AM 26.6 °F 17.5 °F 19.4 °F 74% 30.10 in 10.0 mi SE 9.2 mph - N/A   Scattered Clouds
3:56 AM 26.6 °F 16.8 °F 19.4 °F 74% 30.09 in 10.0 mi SSE 10.4 mph - N/A   Scattered Clouds
4:15 AM 28.4 °F 22.2 °F 21.2 °F 74% 30.09 in 10.0 mi South 5.8 mph - N/A   Partly Cloudy
4:35 AM 30.2 °F 22.6 °F 19.4 °F 64% 30.08 in 10.0 mi SE 8.1 mph - N/A   Partly Cloudy
4:55 AM 30.2 °F 21.3 °F 19.4 °F 64% 30.08 in 10.0 mi SE 10.4 mph - N/A   Clear
5:15 AM 33.8 °F 27.7 °F 21.2 °F 60% 30.09 in 10.0 mi South 6.9 mph - N/A   Clear
5:35 AM 30.2 °F 20.8 °F 21.2 °F 69% 30.08 in 10.0 mi SW 11.5 mph - N/A   Clear
5:55 AM 33.8 °F 27.0 °F 23.0 °F 65% 30.07 in 10.0 mi SW 8.1 mph - N/A   Clear
6:15 AM 39.2 °F 35.0 °F 26.6 °F 61% 30.08 in 10.0 mi West 5.8 mph 17.3 mph N/A   Clear
6:35 AM 39.2 °F 35.0 °F 24.8 °F 56% 30.07 in 10.0 mi WSW 5.8 mph - N/A   Clear
6:55 AM 39.2 °F 31.6 °F 24.8 °F 56% 30.08 in 10.0 mi West 12.7 mph 17.3 mph N/A   Clear
7:15 AM 39.2 °F 33.6 °F 24.8 °F 56% 30.08 in 10.0 mi West 8.1 mph - N/A   Clear
7:35 AM 39.2 °F 32.0 °F 24.8 °F 56% 30.08 in 10.0 mi West 11.5 mph 17.3 mph N/A   Clear
7:55 AM 41.0 °F 33.9 °F 24.8 °F 53% 30.07 in 10.0 mi West 12.7 mph 19.6 mph N/A   Clear
8:15 AM 41.0 °F 32.8 °F 24.8 °F 53% 30.08 in 10.0 mi West 16.1 mph 20.7 mph N/A   Clear
8:35 AM 42.8 °F 35.1 °F 24.8 °F 49% 30.07 in 10.0 mi WSW 16.1 mph 25.3 mph N/A   Clear
8:55 AM 42.8 °F 34.5 °F 24.8 °F 49% 30.07 in 10.0 mi WSW 18.4 mph 25.3 mph N/A   Clear
9:15 AM 42.8 °F 35.4 °F 24.8 °F 49% 30.07 in 10.0 mi West 15.0 mph 24.2 mph N/A   Clear
9:35 AM 42.8 °F 34.8 °F 26.6 °F 53% 30.07 in 10.0 mi WSW 17.3 mph 23.0 mph N/A   Clear
9:55 AM 42.8 °F 34.5 °F 24.8 °F 49% 30.07 in 10.0 mi SW 18.4 mph 23.0 mph N/A   Clear
10:35 AM 44.6 °F 38.1 °F 26.6 °F 49% 30.08 in 10.0 mi WSW 13.8 mph 26.5 mph N/A   Clear
10:55 AM 37.4 °F 32.8 °F 23.0 °F 56% 30.09 in 10.0 mi North 5.8 mph - N/A   Clear
11:15 AM 42.8 °F 40.1 °F 28.4 °F 57% 30.08 in 10.0 mi West 4.6 mph - N/A   Clear
11:35 AM 44.6 °F 38.1 °F 26.6 °F 49% 30.07 in 10.0 mi WSW 13.8 mph 19.6 mph N/A   Clear
11:55 AM 44.6 °F 38.8 °F 28.4 °F 53% 30.07 in 10.0 mi WSW 11.5 mph 21.9 mph N/A   Clear
12:15 PM 42.8 °F 35.4 °F 28.4 °F 57% 30.06 in 10.0 mi WNW 15.0 mph 20.7 mph N/A   Clear
12:35 PM 44.6 °F 36.6 °F 28.4 °F 53% 30.06 in 10.0 mi West 19.6 mph 26.5 mph N/A   Clear
12:55 PM 44.6 °F 36.6 °F 26.6 °F 49% 30.06 in 10.0 mi West 19.6 mph 24.2 mph N/A   Clear
1:15 PM 44.6 °F 38.1 °F 26.6 °F 49% 30.06 in 10.0 mi West 13.8 mph 24.2 mph N/A   Clear
1:35 PM 44.6 °F 37.2 °F 26.6 °F 49% 30.06 in 10.0 mi West 17.3 mph 25.3 mph N/A   Clear
1:55 PM 46.4 °F 40.1 °F 26.6 °F 46% 30.06 in 10.0 mi WSW 15.0 mph 24.2 mph N/A   Clear
2:15 PM 46.4 °F 40.7 °F 26.6 °F 46% 30.07 in 10.0 mi West 12.7 mph 21.9 mph N/A   Partly Cloudy
2:35 PM 46.4 °F 40.4 °F 26.6 °F 46% 30.07 in 10.0 mi West 13.8 mph 21.9 mph N/A   Mostly Cloudy
2:55 PM 46.4 °F 42.9 °F 28.4 °F 50% 30.07 in 10.0 mi NNE 6.9 mph - N/A   Overcast
3:15 PM 46.4 °F 42.9 °F 26.6 °F 46% 30.08 in 10.0 mi WNW 6.9 mph - N/A   Mostly Cloudy
3:35 PM 44.6 °F 40.7 °F 26.6 °F 49% 30.08 in 10.0 mi West 6.9 mph - N/A   Partly Cloudy
3:55 PM 44.6 °F 37.8 °F 26.6 °F 49% 30.08 in 10.0 mi West 15.0 mph 20.7 mph N/A   Clear
4:15 PM 42.8 °F 35.1 °F 26.6 °F 53% 30.09 in 10.0 mi West 16.1 mph 21.9 mph N/A   Clear
4:35 PM 42.8 °F 37.0 °F 26.6 °F 53% 30.10 in 10.0 mi West 10.4 mph 17.3 mph N/A   Clear
4:55 PM 41.0 °F 34.3 °F 26.6 °F 57% 30.11 in 10.0 mi West 11.5 mph 16.1 mph N/A   Scattered Clouds
5:15 PM 41.0 °F 34.3 °F 26.6 °F 57% 30.11 in 10.0 mi West 11.5 mph - N/A   Partly Cloudy
5:35 PM 39.2 °F 34.2 °F 26.6 °F 61% 30.13 in 10.0 mi NE 6.9 mph - N/A   Clear
5:55 PM 37.4 °F 33.8 °F 26.6 °F 65% 30.14 in 10.0 mi ENE 4.6 mph - N/A   Clear
6:15 PM 37.4 °F - 24.8 °F 60% 30.15 in 10.0 mi Calm Calm - N/A   Clear
6:35 PM 35.6 °F 31.7 °F 24.8 °F 65% 30.15 in 10.0 mi SW 4.6 mph - N/A   Clear
6:55 PM 33.8 °F - 24.8 °F 70% 30.16 in 10.0 mi Calm Calm - N/A   Clear
7:15 PM 35.6 °F 32.8 °F 28.4 °F 75% 30.17 in 10.0 mi WSW 3.5 mph - N/A   Scattered Clouds
7:35 PM 32.0 °F 26.4 °F 24.8 °F 75% 30.17 in 10.0 mi NNE 5.8 mph - N/A   Mostly Cloudy
7:55 PM 32.0 °F - 24.8 °F 75% 30.18 in 10.0 mi Calm Calm - N/A   Scattered Clouds
8:15 PM 33.8 °F - 26.6 °F 75% 30.19 in 10.0 mi Calm Calm - N/A   Clear
8:35 PM 30.2 °F - 26.6 °F 86% 30.19 in 10.0 mi Calm Calm - N/A   Clear
8:55 PM 30.2 °F - 26.6 °F 86% 30.20 in 10.0 mi Calm Calm - N/A   Clear
9:15 PM 28.4 °F 23.3 °F 21.2 °F 74% 30.21 in 10.0 mi South 4.6 mph - N/A   Clear
9:35 PM 30.2 °F - 24.8 °F 80% 30.21 in 10.0 mi Calm Calm - N/A   Clear
9:55 PM 30.2 °F - 23.0 °F 75% 30.22 in 10.0 mi Calm Calm - N/A   Clear
10:35 PM 28.4 °F 21.2 °F 21.2 °F 74% 30.22 in 10.0 mi SSW 6.9 mph - N/A   Partly Cloudy
10:55 PM 28.4 °F - 23.0 °F 80% 30.22 in 10.0 mi Calm Calm - N/A   Clear
11:15 PM 28.4 °F 24.6 °F 21.2 °F 74% 30.23 in 10.0 mi South 3.5 mph - N/A   Clear
11:35 PM 26.6 °F 21.2 °F 24.8 °F 93% 30.24 in 10.0 mi South 4.6 mph - N/A   Clear
11:55 PM 26.6 °F - 23.0 °F 86% 30.24 in 10.0 mi Calm Calm - N/A   Clear